Wind_Speed
28 28 29 28 28 27 26 26 26 26 25 26 26 25 25 25 23 22 22 22 22 21 22 22 22 22 22 22 22 22 22 22 21 22 22 22 21 21 21 21 20 20 20
28 28 28 28 28 28 27 27 26 26 26 27 27 27 27 26 25 24 23 23 22 22 22 22 23 23 23 23 23 23 23 23 23 22 23 23 22 22 21 21 21 20 20
27 28 28 28 28 28 28 28 28 27 27 28 28 28 27 26 25 26 25 24 24 23 23 23 23 24 24 24 24 24 24 24 24 23 23 23 23 23 22 22 22 21 21
26 27 28 28 28 28 28 29 29 28 28 29 28 28 27 26 26 26 26 26 25 25 24 24 24 24 24 25 25 25 24 24 25 25 24 24 23 23 24 23 23 22 22
27 27 28 27 27 27 27 28 28 28 28 28 28 28 27 27 27 26 26 26 26 26 26 26 25 25 25 26 25 25 25 25 26 26 26 25 25 25 25 25 24 23 23
27 27 26 26 26 27 27 27 28 28 28 29 28 28 28 28 27 27 27 27 27 27 27 26 26 27 27 27 27 27 26 26 26 26 26 26 26 26 26 26 25 25 25
27 27 26 25 26 26 26 27 28 28 29 29 29 29 29 29 29 28 28 28 28 28 28 28 28 28 27 27 27 27 27 26 26 26 26 26 27 26 26 26 27 27 26
26 25 25 25 25 25 25 25 27 28 29 29 29 29 29 29 30 30 30 30 29 29 29 29 29 29 28 27 27 26 26 26 27 27 27 27 27 27 27 27 27 28 28
25 24 25 25 25 26 25 25 26 27 28 28 28 29 29 29 29 30 31 31 30 30 29 30 30 29 29 28 27 27 27 27 27 28 28 28 28 28 28 27 27 28 28
25 25 25 25 25 25 25 25 26 27 26 27 28 29 29 29 29 30 30 31 30 30 30 29 29 29 28 28 28 28 27 27 28 28 29 29 29 29 29 28 28 28 28
26 26 26 26 25 25 25 25 26 26 26 27 27 28 28 29 28 28 29 30 30 30 29 28 28 28 27 27 28 28 28 28 28 29 29 29 29 30 30 30 30 29 29
26 26 26 26 25 25 26 26 26 27 26 27 27 27 28 28 28 28 28 29 30 30 29 28 28 28 28 28 28 28 28 28 29 30 30 30 30 30 30 30 31 31 30
26 26 26 26 26 26 26 27 27 26 27 27 27 26 26 27 28 28 28 28 28 28 28 28 28 28 29 29 30 30 29 29 30 30 31 30 30 30 29 30 30 31 31
27 27 27 26 25 25 26 26 27 27 27 27 27 27 27 27 27 28 28 28 28 27 28 28 29 29 29 30 30 30 30 30 30 30 30 30 30 30 30 30 30 31 31
26 26 26 26 26 26 26 27 27 27 27 27 27 28 27 27 27 28 29 28 28 28 28 28 28 29 30 30 29 29 29 29 29 29 29 29 30 31 31 31 31 31 30
26 26 27 27 26 26 26 26 27 28 28 28 27 27 27 26 27 27 28 28 28 28 28 28 28 28 28 28 28 27 28 28 28 29 29 29 30 30 31 31 31 31 31
26 26 26 26 26 26 25 25 26 26 27 27 27 26 26 26 26 26 27 27 28 28 28 28 28 28 27 27 27 27 27 28 28 29 29 30 30 31 30 30 31 31 31
26 26 26 26 26 26 26 26 26 26 26 26 26 26 26 26 26 26 27 27 27 27 27 27 27 27 26 26 26 26 26 27 28 28 29 30 30 30 30 30 30 30 30
27 26 27 27 26 27 27 27 27 27 26 26 25 25 26 26 26 26 27 27 27 27 26 26 26 25 26 26 26 27 27 28 28 29 29 28 28 28 28 29 29 29 29
27 26 27 28 27 27 27 27 27 27 27 27 26 26 26 27 27 26 27 27 27 27 27 27 26 26 26 26 27 27 27 28 28 29 29 29 29 29 29 29 29 29 28
28 28 28 28 28 27 27 27 27 27 27 27 27 27 27 27 27 27 27 27 27 27 27 27 27 27 27 27 27 28 28 28 29 29 29 29 29 29 29 29 29 29 28
28 27 27 28 28 28 28 28 27 27 26 26 26 26 26 26 26 25 26 26 26 26 27 27 27 27 27 28 29 29 29 29 29 29 29 29 29 29 29 29 28 28 28
29 29 29 29 29 29 28 27 27 26 26 26 26 26 26 25 25 25 25 25 26 26 26 27 27 28 28 28 29 30 30 29 29 29 29 29 29 29 28 28 27 27 27
30 29 29 28 28 27 27 27 26 26 26 26 25 26 26 26 25 25 25 25 26 27 27 28 28 28 28 29 29 30 30 29 29 29 30 29 28 28 27 27 26 25 25
30 29 28 28 27 27 27 26 26 25 25 25 25 25 26 26 26 26 26 26 27 27 27 28 28 28 28 28 28 28 29 28 28 28 28 27 27 26 26 25 25 25 25
29 28 27 27 27 26 25 25 25 25 25 25 25 25 25 26 26 27 27 27 27 28 27 27 27 27 27 27 27 28 27 27 27 27 26 26 25 25 25 25 25 25 26
Wind_Direction
279 279 278 277 276 276 276 277 277 277 277 275 274 276 278 278 276 276 275 275 275 276 276 276 275 275 275 277 278 278 279 279 280 280 280 283 282 283 282 280 280 276 276
282 280 278 276 274 274 274 275 277 277 277 276 275 275 277 277 276 275 273 274 275 276 276 276 275 275 275 276 277 278 279 279 280 280 280 282 283 282 282 280 278 275 274
284 282 281 278 276 273 272 273 275 275 275 275 275 275 275 275 274 274 273 273 274 276 277 276 276 276 275 275 276 278 278 278 279 279 280 280 282 283 282 280 277 275 273
286 285 283 279 276 274 272 272 274 274 275 274 273 274 274 273 273 273 272 272 274 275 276 277 276 276 276 276 277 277 276 276 276 277 278 279 280 282 281 279 277 275 274
289 288 284 280 276 275 272 273 274 274 275 275 274 274 274 273 272 271 271 271 271 273 275 276 276 276 276 276 277 277 276 275 275 275 276 277 279 280 280 278 276 273 274
290 289 285 280 277 275 273 273 274 274 275 275 274 273 273 273 272 271 271 271 270 271 273 275 276 276 276 276 276 276 276 276 276 275 275 276 277 278 279 277 274 271 273
292 290 286 281 278 276 274 274 275 274 275 275 274 272 272 272 271 272 272 272 271 272 273 274 275 276 276 276 275 274 276 277 277 276 277 277 277 278 278 277 274 272 271
292 289 286 282 280 277 277 276 276 277 276 275 273 271 271 272 271 271 271 272 273 273 273 274 275 276 275 275 274 274 275 276 276 276 277 276 276 277 278 278 276 275 273
291 289 287 284 281 279 279 278 279 279 277 275 273 272 270 270 271 271 272 272 272 273 275 276 276 276 276 275 273 273 274 275 276 277 278 277 277 277 278 277 276 274 273
290 288 287 287 284 281 280 280 280 280 280 277 275 273 271 270 271 271 271 272 273 274 274 275 275 275 276 274 273 272 273 275 276 277 278 278 278 278 278 278 276 274 273
290 288 288 287 285 284 284 283 282 282 281 280 277 276 274 272 272 271 271 272 273 273 273 274 275 275 274 274 273 273 273 275 276 277 278 278 278 278 278 278 276 273 274
289 288 287 286 285 285 286 285 284 284 283 282 280 278 276 274 272 272 270 270 271 272 272 273 274 275 275 274 273 273 273 274 276 277 279 278 277 278 278 277 276 274 274
289 288 286 285 285 284 283 284 284 285 284 283 281 279 278 276 274 273 271 271 271 272 273 273 274 275 275 275 274 274 273 275 276 277 278 278 277 278 278 276 276 277 276
290 288 287 285 285 285 284 285 285 283 283 283 282 281 279 276 276 274 273 270 270 271 272 273 274 274 273 274 275 274 273 274 277 279 278 278 278 279 278 276 276 276 276
292 290 287 285 284 285 285 285 284 282 281 282 283 283 281 278 277 276 274 272 271 272 273 274 275 274 274 273 274 275 274 275 276 278 279 278 278 279 277 276 277 277 277
293 291 288 287 287 286 285 283 282 281 282 283 284 283 281 280 277 277 277 273 271 273 274 274 273 275 275 275 275 274 275 277 278 279 281 281 281 280 278 277 278 279 280
294 292 290 288 287 287 287 286 283 282 283 284 284 283 282 279 278 278 278 274 272 273 274 274 273 274 275 274 273 272 274 276 278 280 281 281 282 282 280 279 280 281 281
293 290 288 288 287 287 287 287 286 284 283 284 284 283 281 279 277 276 276 274 272 272 274 275 275 274 274 274 275 275 276 278 280 281 282 282 283 283 281 280 279 280 280
294 290 288 287 287 287 287 287 286 286 285 286 285 284 282 280 279 277 275 274 274 275 276 277 277 276 275 276 276 277 277 279 281 282 283 284 285 284 283 281 280 280 280
293 291 290 288 287 287 287 288 287 286 285 284 284 284 283 282 280 278 277 276 276 277 278 277 277 276 277 278 278 278 278 279 281 283 283 285 285 285 284 282 281 281 281
292 290 289 289 288 288 288 289 288 286 285 284 284 286 284 281 279 278 277 277 277 278 278 279 279 278 278 279 279 278 277 279 282 283 284 285 285 286 285 283 281 280 280
293 291 290 289 289 289 288 289 288 286 285 285 285 284 283 280 278 277 276 276 277 279 280 280 280 278 278 279 279 278 279 280 281 282 284 285 285 285 284 283 282 280 279
292 292 290 288 289 289 289 288 288 287 286 286 286 285 283 280 279 279 278 278 278 279 279 280 281 280 280 280 280 280 280 280 281 282 284 285 284 283 283 282 281 278 277
292 293 291 290 289 288 288 288 288 288 289 288 287 285 283 282 281 279 277 277 278 279 279 280 281 282 282 282 281 282 282 281 281 282 283 284 283 282 281 281 280 278 276
291 291 291 289 288 288 287 286 284 284 286 287 287 286 284 282 281 278 277 278 279 279 280 281 281 282 282 282 282 283 282 282 282 283 284 283 281 281 281 281 280 279 278
289 289 289 287 287 286 284 282 282 283 285 285 286 286 285 283 281 279 279 279 280 280 280 281 281 282 282 282 282 283 282 282 282 283 284 283 281 280 280 281 280 280 282
Height
5775 5774 5773 5773 5773 5773 5774 5773 5773 5773 5773 5774 5774 5774 5774 5774 5774 5774 5774 5774 5773 5774 5774 5774 5774 5773 5773 5773 5773 5773 5773 5773 5773 5772 5772 5771 5771 5770 5769 5769 5769 5769 5769
5766 5765 5765 5765 5764 5765 5765 5765 5765 5766 5766 5766 5766 5766 5766 5766 5767 5767 5767 5767 5767 5767 5767 5767 5767 5767 5767 5767 5767 5767 5766 5766 5766 5766 5766 5765 5764 5763 5763 5762 5762 5763 5763
5758 5757 5756 5756 5756 5756 5757 5757 5757 5758 5758 5758 5758 5759 5759 5759 5759 5760 5760 5760 5760 5760 5760 5760 5760 5760 5760 5760 5760 5760 5760 5759 5759 5759 5759 5758 5758 5757 5756 5756 5756 5756 5756
5750 5749 5748 5747 5747 5748 5748 5748 5749 5749 5750 5750 5750 5750 5751 5751 5752 5752 5752 5753 5753 5753 5753 5753 5753 5752 5753 5753 5752 5752 5752 5752 5752 5751 5751 5751 5751 5750 5749 5749 5749 5749 5749
5743 5741 5740 5739 5739 5739 5740 5740 5741 5741 5741 5741 5742 5742 5743 5743 5744 5744 5745 5745 5745 5746 5745 5745 5745 5745 5745 5745 5745 5744 5744 5744 5744 5744 5744 5743 5743 5743 5742 5742 5742 5742 5742
5735 5733 5732 5731 5731 5731 5732 5732 5733 5733 5733 5733 5733 5734 5734 5735 5735 5736 5736 5737 5737 5737 5738 5738 5737 5737 5737 5737 5736 5736 5736 5736 5736 5735 5735 5735 5735 5734 5734 5734 5734 5734 5735
5728 5726 5724 5723 5723 5723 5723 5724 5724 5724 5724 5725 5725 5725 5725 5726 5726 5727 5727 5728 5728 5729 5729 5729 5729 5728 5728 5728 5727 5727 5727 5727 5727 5727 5727 5727 5726 5726 5726 5726 5725 5726 5727
5721 5719 5717 5716 5716 5715 5714 5715 5716 5715 5716 5716 5716 5716 5716 5717 5717 5718 5718 5718 5719 5719 5719 5720 5719 5719 5719 5719 5719 5718 5718 5718 5718 5718 5718 5718 5717 5717 5717 5717 5717 5717 5717
5714 5712 5710 5709 5709 5708 5707 5707 5707 5707 5707 5707 5707 5707 5707 5708 5708 5708 5709 5709 5709 5710 5710 5710 5710 5710 5710 5710 5710 5710 5710 5710 5709 5709 5709 5708 5708 5708 5708 5708 5708 5708 5708
5707 5705 5704 5702 5701 5701 5700 5699 5699 5699 5698 5698 5698 5698 5698 5699 5699 5699 5699 5700 5700 5701 5701 5700 5700 5700 5700 5700 5700 5701 5701 5701 5701 5700 5700 5699 5699 5699 5698 5698 5698 5698 5699
5699 5698 5697 5695 5694 5693 5692 5692 5691 5691 5690 5689 5689 5689 5689 5689 5689 5690 5690 5690 5691 5691 5692 5692 5691 5691 5692 5692 5691 5691 5691 5692 5691 5691 5691 5690 5690 5689 5689 5688 5688 5689 5689
5691 5690 5689 5688 5687 5686 5685 5684 5683 5682 5682 5681 5680 5680 5680 5680 5680 5680 5680 5680 5681 5682 5682 5683 5683 5682 5683 5683 5682 5682 5682 5682 5682 5682 5681 5681 5680 5680 5679 5679 5678 5679 5679
5684 5682 5681 5680 5678 5677 5676 5676 5675 5674 5673 5672 5671 5671 5671 5670 5671 5671 5671 5671 5671 5672 5673 5673 5673 5673 5673 5673 5673 5673 5673 5673 5673 5672 5672 5671 5671 5670 5669 5669 5668 5668 5668
5675 5674 5673 5672 5670 5669 5668 5667 5666 5665 5664 5663 5663 5662 5662 5662 5662 5662 5662 5662 5663 5663 5663 5664 5664 5664 5664 5663 5663 5663 5663 5663 5663 5663 5662 5662 5661 5660 5659 5658 5658 5658 5657
5667 5666 5665 5663 5662 5661 5660 5659 5658 5657 5656 5655 5654 5653 5653 5653 5653 5653 5653 5653 5654 5654 5655 5655 5655 5655 5654 5654 5654 5654 5654 5654 5654 5654 5653 5652 5651 5650 5649 5648 5648 5647 5647
5659 5658 5656 5655 5654 5653 5652 5651 5649 5649 5648 5647 5646 5645 5644 5643 5643 5644 5644 5644 5645 5645 5645 5645 5645 5645 5645 5645 5645 5645 5645 5645 5645 5644 5643 5642 5641 5640 5639 5638 5637 5637 5636
5652 5650 5648 5647 5646 5645 5643 5642 5642 5641 5639 5638 5637 5636 5636 5635 5635 5635 5635 5635 5636 5636 5636 5636 5636 5636 5636 5636 5636 5636 5636 5636 5635 5634 5634 5633 5632 5630 5629 5628 5627 5627 5626
5644 5642 5641 5639 5638 5637 5636 5634 5633 5632 5632 5630 5629 5628 5628 5627 5627 5627 5627 5627 5627 5627 5627 5627 5627 5627 5627 5627 5627 5627 5627 5626 5626 5625 5624 5623 5622 5621 5620 5619 5618 5617 5616
5636 5634 5633 5632 5630 5629 5627 5626 5625 5624 5623 5622 5622 5621 5620 5619 5619 5619 5618 5618 5619 5619 5619 5619 5618 5618 5618 5618 5618 5618 5618 5617 5617 5616 5614 5613 5612 5611 5610 5609 5608 5607 5606
5628 5626 5625 5623 5622 5621 5619 5618 5617 5616 5615 5614 5613 5613 5612 5611 5611 5610 5610 5610 5610 5611 5611 5610 5610 5610 5610 5610 5610 5609 5608 5608 5607 5606 5605 5604 5603 5602 5601 5600 5599 5598 5597
5620 5618 5617 5615 5614 5612 5611 5610 5609 5607 5606 5606 5605 5604 5603 5603 5602 5602 5602 5602 5602 5602 5602 5602 5602 5602 5601 5601 5600 5600 5599 5599 5598 5597 5596 5595 5593 5592 5591 5590 5589 5589 5588
5612 5610 5608 5607 5605 5604 5602 5601 5600 5599 5598 5597 5596 5596 5595 5594 5594 5594 5594 5594 5594 5594 5594 5593 5593 5593 5593 5592 5591 5591 5590 5589 5589 5588 5587 5585 5584 5583 5582 5581 5580 5579 5579
5604 5602 5600 5598 5597 5595 5594 5593 5591 5590 5589 5588 5588 5587 5586 5586 5585 5585 5586 5586 5586 5586 5585 5585 5584 5584 5584 5583 5582 5581 5581 5580 5579 5578 5577 5576 5575 5574 5573 5572 5571 5570 5570
5595 5593 5591 5590 5588 5587 5586 5584 5583 5582 5581 5580 5579 5579 5578 5578 5577 5577 5577 5578 5577 5577 5577 5576 5576 5575 5574 5573 5573 5572 5571 5570 5569 5568 5567 5566 5565 5564 5564 5563 5562 5562 5561
5586 5584 5583 5581 5580 5579 5577 5576 5575 5574 5573 5572 5572 5571 5570 5570 5570 5569 5569 5569 5569 5568 5568 5567 5567 5566 5565 5564 5563 5563 5562 5561 5560 5559 5558 5557 5556 5555 5555 5554 5554 5553 5552
5577 5576 5574 5573 5572 5570 5569 5569 5568 5567 5566 5565 5564 5563 5563 5562 5561 5561 5560 5560 5560 5559 5559 5558 5558 5557 5556 5555 5554 5554 5553 5552 5551 5550 5549 5548 5547 5547 5546 5546 5545 5545 5544